DW3835 Weather Reports


Display with metric or nautical units.
time (UTC)temp
F
wind
direction
speed
MPH
gust
MPH
rain 1hr
in
rain 24hr
in
rain mn
in
humidity
%
barometer
mb
20260904170312 65 173 0.0 4.0 0.00 0.30 0.01 78 1012.8
20260904165329 64 115 0.0 4.0 0.00 0.30 0.01 80 1012.7
20260904162017 62 269 0.0 0.0 0.00 0.30 0.01 87 1012.4
20260904160947 62 145 0.0 2.0 0.00 0.30 0.01 88 1012.4
20260904154831 61 163 0.0 2.0 0.00 0.30 0.01 91 1012.5
20260904152721 59 232 0.0 2.0 0.00 0.30 0.01 91 1012.5
20260904151734 59 69 0.0 1.0 0.00 0.30 0.01 91 1012.4
20260904145613 58 130 0.0 0.0 0.00 0.30 0.01 91 1012.2
20260904143516 58 78 0.0 0.0 0.00 0.30 0.01 91 1012.0
20260904142448 57 257 0.0 0.0 0.00 0.30 0.01 92 1011.9
20260904141419 57 142 0.0 0.0 0.00 0.30 0.01 91 1011.8
20260904140351 58 142 0.0 0.0 0.00 0.30 0.01 91 1011.6
20260904134233 58 28 0.0 0.0 0.00 0.30 0.01 92 1011.5
20260904132110 57 89 0.0 0.0 0.00 0.30 0.01 91 1011.3
20260904131052 57 87 0.0 0.0 0.00 0.30 0.01 91 1011.3
20260904130110 57 165 0.0 0.0 0.00 0.30 0.01 91 1011.2
20260904125113 57 301 0.0 0.0 0.00 0.30 0.01 91 1011.1
20260904121911 58 325 0.0 2.0 0.00 0.30 0.01 91 1011.1
20260904120853 57 237 0.0 2.0 0.00 0.30 0.01 90 1011.0
20260904115914 58 169 0.0 1.0 0.00 0.30 0.01 90 1011.0
20260904114915 57 176 0.0 1.0 0.00 0.30 0.01 91 1011.0
20260904111606 58 34 0.0 0.0 0.00 0.30 0.01 91 1011.0
20260904110544 58 34 0.0 0.0 0.00 0.30 0.01 91 1011.0
20260904105549 58 34 0.0 0.0 0.00 0.30 0.01 91 1010.8
20260904104519 58 34 0.0 0.0 0.00 0.30 0.01 90 1010.9
20260904103508 58 333 0.0 0.0 0.00 0.30 0.01 90 1010.9
20260904101340 59 340 0.0 0.0 0.00 0.30 0.01 90 1010.8
20260904094101 59 355 0.0 1.0 0.00 0.30 0.01 91 1010.7
20260904091936 60 169 0.0 0.0 0.00 0.29 0.00 91 1010.7
20260904090908 60 169 0.0 0.0 0.00 0.29 0.00 91 1010.7
20260904084747 60 169 0.0 0.0 0.00 0.29 0.00 91 1010.6
20260904083752 61 165 0.0 0.0 0.00 0.29 0.00 91 1010.6
20260904082759 61 165 0.0 0.0 0.00 0.29 0.00 91 1010.6
20260904081815 61 164 0.0 0.0 0.00 0.29 0.00 91 1010.7
20260904080754 61 164 0.0 0.0 0.00 0.29 0.00 91 1010.6
20260904075753 61 165 0.0 0.0 0.00 0.29 0.00 91 1010.6
20260904074748 61 182 0.0 0.0 0.00 0.29 0.00 91 1010.6
20260904073808 61 182 0.0 0.0 0.00 0.29 0.00 91 1010.6
20260904072806 61 182 0.0 0.0 0.00 0.29 0.00 91 1010.5
20260904071826 61 171 0.0 0.0 0.00 0.29 0.00 91 1010.4
20260904070811 61 345 0.0 0.0 0.00 0.29 0.00 91 1010.4
20260904065811 61 335 0.0 1.0 0.00 0.29 0.28 91 1010.4
20260904063625 61 103 0.0 0.0 0.00 0.29 0.28 91 1010.4
20260904062602 61 103 0.0 0.0 0.00 0.29 0.28 91 1010.4
20260904061538 61 103 0.0 0.0 0.00 0.29 0.28 91 1010.5
20260904060547 61 103 0.0 0.0 0.00 0.29 0.28 91 1010.5
20260904055527 61 103 0.0 0.0 0.00 0.29 0.28 91 1010.5
20260904054538 61 355 0.0 1.0 0.00 0.29 0.28 91 1010.5
20260904053549 61 183 0.0 2.0 0.00 0.29 0.28 91 1010.6
20260904052544 61 290 0.0 3.0 0.04 0.29 0.28 91 1010.6
20260904051606 61 109 0.0 5.0 0.05 0.29 0.28 91 1010.8
20260904050544 62 239 1.0 5.0 0.06 0.27 0.27 91 1010.9
20260904045525 63 0 1.0 4.0 0.04 0.26 0.27 91 1010.8
20260904043435 63 110 0.0 0.0 0.06 0.26 0.26 91 1010.7
20260904042422 63 110 0.0 0.0 0.06 0.24 0.25 91 1010.7
20260904041421 63 110 0.0 0.0 0.13 0.24 0.24 91 1010.7
20260904040432 64 128 0.0 0.0 0.10 0.21 0.21 91 1010.6
20260904035414 63 128 0.0 0.0 0.05 0.21 0.21 91 1010.5
20260904034355 64 128 0.0 0.0 0.12 0.19 0.20 91 1010.3
20260904033409 64 128 0.0 0.0 0.04 0.18 0.18 91 1010.4
20260904031257 64 134 0.0 0.0 0.10 0.16 0.16 90 1010.2
20260904030300 64 134 0.0 0.0 0.38 0.13 0.13 90 1010.2
20260904025244 64 159 0.0 1.0 0.09 0.10 0.10 90 1010.2
20260904023126 65 201 0.0 3.0 0.09 0.08 0.08 90 1010.3
20260904022133 65 175 0.0 3.0 0.00 0.06 0.06 90 1010.3
20260904021141 65 173 0.0 1.0 0.00 0.06 0.06 89 1010.4
20260904020108 65 167 0.0 0.0 0.04 0.06 0.06 89 1010.4
20260904015334 66 178 0.0 3.0 0.08 0.06 0.06 89 1010.3
20260904014300 66 180 0.0 3.0 0.13 0.04 0.05 88 1010.5
20260904013252 66 148 0.0 3.0 0.00 0.03 0.03 88 1010.6
20260904012314 66 227 1.0 3.0 0.05 0.02 0.02 87 1010.6
20260904011314 67 154 0.0 2.0 0.00 0.01 0.01 86 1010.5
20260904010304 67 152 0.0 6.0 0.00 0.01 0.01 84 1010.5
20260904005248 68 173 1.0 6.0 0.00 0.00 0.00 81 1010.5
20260904004219 69 159 1.0 5.0 0.00 0.00 0.00 76 1010.5